Weather History for Hatteras, NC

Change the Weather History Date:

Wednesday, October 17, 2012

  Actual Average Record
Temperature  
Mean Temperature 61 °F 66 °F  
Max Temperature 69 °F 72 °F 83 °F (1989)
Min Temperature 52 °F 59 °F 41 °F (1963)
Degree Days  
Heating Degree Days 4 2  
Month to date heating degree days 17 23  
Since 1 July heating degree days 17 26  
Cooling Degree Days 0 3  
Month to date cooling degree days 89 72  
Year to date cooling degree days 2045 1664  
Growing Degree Days 10 (Base 50)    
Moisture  
Dew Point 51 °F    
Average Humidity 71    
Maximum Humidity 83    
Minimum Humidity 58    
Precipitation  
Precipitation 0.00 in 0.17 in 3.07 in (1999)
Month to date precipitation 1.06 2.97  
Year to date precipitation 41.79 46.41  
Snow  
Snow 0.00 in - - ()
Month to date snowfall 0.0  
Since 1 July snowfall 0.0  
Snow Depth 0.00 in    
Sea Level Pressure  
Sea Level Pressure 29.98 in    
Wind  
Wind Speed 5 mph (NE)    
Max Wind Speed 10 mph    
Max Gust Speed 14 mph    
Visibility 10 miles    
Events      
T = Trace of Precipitation, MM = Missing Value Source: NWS Daily Summary

Daily Weather History Graph

Daily Weather History Graph

Search for Another Location

Airport:

Trip Planner

Search our weather history database for the weather conditions in past years. The results will help you decide how hot, cold, wet, or windy it might be!

Date:

Astronomy

Oct. 17, 2012 Rise Set
Actual Time 7:10 AM EDT 6:24 PM EDT
Civil Twilight 6:45 AM EDT 6:49 PM EDT
Nautical Twilight 6:15 AM EDT 7:19 PM EDT
Astronomical Twilight 5:46 AM EDT 7:48 PM EDT
Moon 9:35 AM EDT (10/17) 8:05 PM EDT (10/17)
Length of Visible Light 12h 04m
Length of Day
11h 13m
Waxing Crescent, 7% of the Moon is Illuminated
Oct 17
Waxing Crescent
Oct 21
First Quarter
Oct 29
Full
Nov 6
Last Quarter
Nov 13
New

Hourly Weather History & Observations

Time (EDT) Temp. Dew Point Humidity Pressure Visibility Wind Dir Wind Speed Gust Speed Precip Events Conditions
12:51 AM 54.0 °F 48.0 °F 80% 29.94 in 10.0 mi NE 4.6 mph - N/A   Partly Cloudy
1:51 AM 54.0 °F 48.0 °F 80% 29.94 in 10.0 mi Calm Calm - N/A   Mostly Cloudy
2:51 AM 53.1 °F 48.9 °F 86% 29.94 in 10.0 mi NNE 3.5 mph - N/A   Clear
3:51 AM 55.0 °F 48.9 °F 80% 29.94 in 10.0 mi NNE 3.5 mph - N/A   Clear
4:51 AM 55.0 °F 48.0 °F 77% 29.94 in 10.0 mi NNE 3.5 mph - N/A   Clear
5:51 AM 54.0 °F 48.0 °F 80% 29.95 in 10.0 mi NE 3.5 mph - N/A   Clear
6:51 AM 53.1 °F 48.0 °F 83% 29.98 in 10.0 mi NE 3.5 mph - N/A   Clear
7:51 AM 59.0 °F 50.0 °F 72% 29.99 in 10.0 mi NNE 3.5 mph - N/A   Clear
8:51 AM 62.1 °F 51.1 °F 67% 30.01 in 10.0 mi NNE 3.5 mph - N/A   Clear
9:51 AM 64.0 °F 51.1 °F 63% 30.02 in 10.0 mi NNE 4.6 mph - N/A   Clear
10:51 AM 63.0 °F 51.1 °F 65% 30.01 in 10.0 mi NE 5.8 mph - N/A   Clear
11:51 AM 66.9 °F 52.0 °F 59% 30.01 in 10.0 mi Variable 5.8 mph - N/A   Clear
12:51 PM 66.9 °F 52.0 °F 59% 30.01 in 10.0 mi NNE 8.1 mph - N/A   Clear
1:51 PM 66.9 °F 53.1 °F 61% 29.99 in 10.0 mi NE 8.1 mph - N/A   Clear
2:51 PM 66.9 °F 53.1 °F 61% 29.99 in 10.0 mi NNE 6.9 mph - N/A   Clear
3:51 PM 66.0 °F 54.0 °F 65% 29.98 in 10.0 mi NE 4.6 mph - N/A   Clear
4:51 PM 64.9 °F 52.0 °F 63% 29.98 in 10.0 mi NE 6.9 mph - N/A   Clear
5:51 PM 63.0 °F 52.0 °F 67% 29.98 in 10.0 mi ENE 3.5 mph - N/A   Clear
6:51 PM 61.0 °F 51.1 °F 70% 29.98 in 10.0 mi ENE 4.6 mph - N/A   Clear
7:51 PM 62.1 °F 51.1 °F 67% 29.99 in 10.0 mi NE 4.6 mph - N/A   Clear
8:51 PM 61.0 °F 51.1 °F 70% 30.00 in 10.0 mi East 3.5 mph - N/A   Clear
9:51 PM 61.0 °F 48.9 °F 64% 30.00 in 10.0 mi ENE 4.6 mph - N/A   Clear
10:51 PM 61.0 °F 50.0 °F 67% 29.99 in 10.0 mi ENE 5.8 mph - N/A   Clear
11:51 PM 62.1 °F 51.1 °F 67% 29.98 in 10.0 mi ENE 4.6 mph - N/A   Clear